This demonstration page uses our WeatherBlox Daily Observations layout. Learn more.

Hourly Observations for January 24, 2020

Temp ( °F °C ) Dew Point ( °F °C ) Humidity (%) Winds ( mph kmh ) Pressure ( in mb ) Visibility ( mi km ) Precip ( " mm )
12:54 am 00:54 Cloudy 29 -1.7 25 -3.9 85 85 NNW 15 24 30.07 1018 9 14.48406 0 0
1:54 am 01:54 Cloudy 29 -1.7 25 -3.9 85 85 NNW 14 22 30.07 1018 8 12.87472 0 0
2:42 am 02:42 Cloudy 29 -1.7 25 -3.9 85 85 NNW 16 26 30.11 1020 7 11.26538 0 0
2:54 am 02:54 Cloudy 29 -1.7 25 -3.9 85 85 NNW 16 26 30.07 1018 7 11.26538 0 0
3:54 am 03:54 Cloudy with Mist and Fog 29 -1.7 25 -3.9 85 85 NNW 16 26 30.07 1018 6 9.65604 0 0
4:54 am 04:54 Cloudy with Mist and Fog 28 -2.2 25 -3.9 88 88 NNW 15 24 30.08 1019 6 9.65604 0 0
5:54 am 05:54 Cloudy with Mist and Fog 28 -2.2 25 -3.9 88 88 NNW 16 26 30.09 1019 6 9.65604 0 0
6:54 am 06:54 Cloudy with Mist and Fog 28 -2.2 24 -4.4 85 85 NNW 15 24 30.1 1019 6 9.65604 0 0
7:54 am 07:54 Cloudy 28 -2.2 24 -4.4 85 85 NNW 16 26 30.1 1019 7 11.26538 0 0
8:54 am 08:54 Cloudy with Mist and Fog 28 -2.2 24 -4.4 85 85 NNW 15 24 30.11 1020 6 9.65604 0 0
9:54 am 09:54 Cloudy 29 -1.7 25 -3.9 85 85 NNW 12 19 30.12 1020 7 11.26538 0 0
10:54 am 10:54 Cloudy 30 -1.1 25 -3.9 82 82 NNW 14 22 30.13 1020 7 11.26538 0 0
11:10 am 11:10 Cloudy 30 -1.1 25 -3.9 82 82 NW 14 22 30.17 1022 7 11.26538 0 0
11:54 am 11:54 Cloudy 30 -1.1 25 -3.9 82 82 NNW 13 20 30.12 1020 8 12.87472 0 0
12:54 pm 12:54 Cloudy 30 -1.1 26 -3.3 85 85 NNW 15 24 30.11 1020 7 11.26538 0 0
1:12 pm 13:12 Cloudy 30 -1.1 26 -3.3 85 85 NNW 14 22 30.14 1020 7 11.26538 0 0
1:54 pm 13:54 Cloudy 30 -1.1 26 -3.3 85 85 NNW 12 19 30.09 1019 7 11.26538 0 0
2:54 pm 14:54 Cloudy 31 -0.6 26 -3.3 82 82 NNW 12 19 30.09 1019 8 12.87472 0 0
3:54 pm 15:54 Cloudy 31 -0.6 26 -3.3 82 82 NNW 9 15 30.1 1019 8 12.87472 0 0
4:54 pm 16:54 Cloudy 31 -0.6 25 -3.9 79 79 NW 9 15 30.11 1020 9 14.48406 0 0
5:54 pm 17:54 Cloudy 30 -1.1 25 -3.9 82 82 undefined N/A 30.12 1020 10 16.0934 0 0
6:17 pm 18:17 Cloudy 30 -1.1 25 -3.9 82 82 NW 9 15 30.15 1021 10 16.0934 0 0
6:32 pm 18:32 Cloudy 30 -1.1 25 -3.9 82 82 NW 9 15 30.15 1021 10 16.0934 0 0
6:54 pm 18:54 Cloudy 30 -1.1 25 -3.9 82 82 NW 8 13 30.12 1020 10 16.0934 0 0
7:54 pm 19:54 Cloudy 29 -1.7 24 -4.4 82 82 NNW 8 13 30.12 1020 10 16.0934 0 0
8:54 pm 20:54 Cloudy 29 -1.7 24 -4.4 82 82 NNW 7 11 30.12 1020 10 16.0934 0 0
9:35 pm 21:35 Cloudy 29 -1.7 24 -4.4 82 82 NW 6 9 30.15 1021 10 16.0934 0 0
9:54 pm 21:54 Cloudy 28 -2.2 24 -4.4 85 85 NNW 6 9 30.12 1020 10 16.0934 0 0
10:54 pm 22:54 Cloudy 27 -2.8 23 -5 85 85 NW 6 9 30.12 1020 10 16.0934 0 0
11:54 pm 23:54 Mostly Cloudy 26 -3.3 22 -5.6 84 84 NNW 6 9 30.12 1020 10 16.0934 0 0

Powered by AerisWeather